SCP
2 2 1 1 1 1 1 1 1 1 1 1 1 1 0 0 0 0 0 0 0 0 0 0 0 0 0 0 0 0 0 0 0 0 0 0 0 0 0 0 0 0 0
2 2 1 1 1 1 1 1 1 1 1 1 1 0 0 0 0 0 0 0 0 0 0 0 0 0 0 0 0 0 0 0 0 0 0 0 0 0 0 0 0 0 0
2 2 1 1 1 1 1 2 2 1 1 1 0 0 0 0 0 0 0 0 0 0 0 0 0 0 0 0 0 0 0 0 0 0 0 0 0 0 0 0 0 0 0
2 2 1 1 1 1 1 1 1 1 1 0 0 0 0 0 0 0 0 0 0 0 0 0 0 0 0 0 0 0 0 0 0 0 0 0 0 0 0 0 0 0 0
2 2 1 1 1 1 1 1 1 1 0 0 0 0 0 0 0 0 0 0 0 0 0 0 0 0 0 0 0 0 0 0 0 0 0 0 0 0 0 0 0 0 0
2 2 1 1 1 0 0 0 0 0 0 0 0 0 0 0 0 0 0 0 0 0 0 0 0 0 0 0 0 0 0 0 0 0 0 0 0 0 0 0 0 0 0
1 1 0 0 0 0 0 0 0 0 0 0 0 0 0 0 0 0 0 0 0 0 0 0 0 0 0 0 0 0 0 0 0 0 0 0 0 0 0 0 0 0 0
0 0 0 0 0 0 0 0 0 0 0 0 0 0 0 0 0 0 0 0 0 0 0 0 0 0 0 0 0 0 0 0 0 0 0 0 0 0 0 0 0 0 0
0 0 0 0 0 0 0 0 0 0 0 0 0 0 0 0 0 0 0 0 0 0 0 0 0 0 0 0 0 0 0 0 0 0 0 0 0 0 0 0 0 0 0
0 0 0 0 0 0 0 0 0 0 0 0 0 0 0 0 0 0 0 0 0 0 0 0 0 0 0 0 0 0 0 0 0 0 0 0 0 0 0 0 0 0 0
0 0 0 0 0 0 0 0 0 0 0 0 0 0 0 0 0 0 0 0 0 0 0 0 0 0 0 0 0 0 0 0 0 0 0 0 0 0 0 0 0 0 0
0 0 0 0 0 0 0 0 0 0 0 0 0 0 0 0 0 0 0 0 0 0 0 0 0 0 0 0 0 0 0 0 0 0 0 0 0 0 0 0 0 0 0
0 0 0 0 0 0 0 0 0 0 0 0 0 0 0 0 0 0 0 0 0 0 0 0 0 0 0 0 0 0 0 0 0 0 0 0 0 0 0 0 0 0 0
0 0 0 0 0 0 0 0 0 0 0 0 0 0 0 0 0 0 0 0 0 0 0 0 0 0 0 0 0 0 0 0 0 0 0 0 0 0 0 0 0 0 0
0 0 0 0 0 0 0 0 0 0 0 0 0 0 0 0 0 0 0 0 0 0 0 0 0 0 0 0 0 0 0 0 0 0 0 0 0 0 0 0 0 0 0
0 0 0 0 0 0 0 0 0 0 0 0 0 0 0 0 0 0 0 0 0 0 0 0 0 0 0 0 0 0 0 0 0 0 0 0 0 0 0 0 0 0 0
0 0 0 0 0 0 0 0 0 0 0 0 0 0 0 0 0 0 0 0 0 0 0 0 0 0 0 0 0 0 0 0 0 0 0 0 0 0 0 0 0 0 0
0 0 0 0 0 0 0 0 0 0 0 0 0 0 0 0 0 0 0 0 0 0 0 0 0 0 0 0 0 0 0 0 0 0 0 0 0 0 0 0 0 0 0
0 0 0 0 0 0 0 0 0 0 0 0 0 0 0 0 0 0 0 0 0 0 0 0 0 0 0 0 0 0 0 0 0 0 0 0 0 0 0 0 0 0 0
0 0 0 0 0 0 0 0 0 0 0 0 0 0 0 0 0 0 0 0 0 0 0 0 0 0 0 0 0 0 0 0 0 0 0 0 0 0 -0 0 0 0 0
0 0 0 0 0 0 0 0 0 0 0 0 0 0 0 0 0 0 0 0 0 0 0 0 0 0 0 0 0 0 0 0 0 0 0 0 0 0 0 0 0 0 0
0 0 0 0 0 0 0 0 0 0 0 0 0 0 0 0 0 0 0 0 0 0 0 0 0 0 0 0 0 0 0 0 0 0 0 0 0 0 0 0 0 0 0
0 0 0 0 0 0 0 0 0 0 0 0 0 0 0 0 0 0 0 0 0 0 0 0 0 0 0 0 0 0 0 0 0 0 0 0 0 0 0 0 0 0 0
0 0 0 0 0 0 0 0 0 0 0 0 0 0 0 0 0 0 0 0 0 0 0 0 0 0 0 0 0 0 0 0 0 0 0 0 0 0 0 0 0 0 0
0 0 0 0 0 0 0 0 0 0 0 0 0 0 0 0 0 0 0 0 0 0 0 0 0 0 0 0 0 0 0 0 -0 0 0 0 0 0 0 0 0 0 0
0 0 0 0 0 0 0 0 0 0 0 0 0 0 0 0 0 0 0 0 0 0 0 0 0 0 0 0 0 0 0 0 -0 0 0 0 0 0 0 0 0 0 0
Wind_Speed
13 11 10 9 8 8 8 8 9 9 7 6 7 7 7 7 7 8 9 9 8 8 7 5 5 5 4 4 4 5 6 6 5 8 10 10 11 11 8 8 8 9 10
13 11 10 9 9 9 10 11 11 9 8 7 6 6 8 7 8 7 8 8 7 7 5 6 4 4 3 3 4 4 6 7 5 7 10 11 11 9 6 5 8 10 10
16 14 12 11 11 11 11 10 12 11 10 10 9 9 8 7 6 6 5 5 5 5 5 5 5 4 5 4 5 6 6 7 8 5 7 9 9 10 7 8 8 9 9
17 16 15 14 13 13 13 13 13 13 12 10 9 9 6 5 5 3 4 4 4 5 5 5 5 5 5 4 4 5 6 5 7 5 4 6 8 8 8 8 9 11 11
18 17 17 16 15 14 13 14 14 14 12 11 10 9 7 6 5 3 4 1 3 3 4 4 4 4 3 4 4 4 5 5 6 7 6 7 7 9 10 12 10 10 10
16 16 16 16 15 13 13 14 14 14 12 11 10 9 8 6 4 2 2 2 2 2 5 4 4 4 4 3 3 4 5 4 5 6 6 7 8 9 10 13 12 12 11
16 16 17 16 15 14 13 12 13 13 12 12 10 9 7 5 5 3 3 3 2 2 3 4 3 4 4 4 4 4 5 5 5 6 6 7 8 9 10 12 13 14 12
16 17 17 16 15 14 13 11 12 12 12 11 10 9 6 4 5 4 3 2 3 3 3 3 4 4 5 5 5 6 6 5 7 8 8 8 9 9 10 11 13 14 12
16 16 16 15 14 13 12 11 12 12 11 11 10 8 6 5 5 2 1 1 2 3 4 5 6 6 6 7 7 7 8 8 9 10 10 9 9 9 9 9 11 13 14
16 16 15 14 12 11 11 12 12 11 11 10 8 6 5 4 2 1 3 4 4 4 6 6 7 8 8 9 9 10 9 10 11 10 12 12 11 10 10 10 11 12 13
17 16 15 14 12 12 12 12 11 11 10 9 7 5 4 3 1 2 3 3 4 5 7 7 8 9 9 10 10 12 13 14 14 14 15 15 15 13 12 12 12 12 12
16 16 15 14 13 12 12 11 10 10 9 7 5 4 3 1 2 2 3 4 6 7 8 9 10 11 12 12 13 14 15 16 16 16 16 17 14 15 14 13 15 14 14
16 15 13 12 12 11 11 11 9 9 7 6 4 3 0 1 2 3 4 6 7 9 10 11 12 13 13 14 14 15 15 16 16 16 16 16 17 17 15 16 16 14 13
15 15 12 11 10 11 11 10 8 6 5 4 3 2 1 1 3 5 6 8 9 11 12 12 13 13 13 13 13 13 14 14 15 15 15 16 17 16 16 15 16 15 14
14 13 12 11 11 11 10 9 7 4 4 4 3 3 1 2 5 6 7 8 8 9 9 9 9 10 9 10 12 13 15 15 15 16 16 17 19 21 17 14 15 15 13
15 13 12 11 10 9 9 8 5 4 4 3 3 2 2 4 5 6 6 6 6 7 8 8 8 9 7 9 12 14 15 15 15 15 15 15 17 19 18 18 20 19 17
16 14 11 9 8 7 7 6 4 3 3 2 1 2 4 4 4 4 5 6 7 7 8 8 8 8 6 5 10 14 15 15 13 14 13 12 12 15 14 14 16 17 18
14 13 11 10 9 8 6 3 3 3 2 2 2 3 3 3 4 5 6 7 7 8 8 7 7 7 5 5 11 18 14 13 13 13 13 13 14 13 14 14 14 14 14
13 13 12 10 9 7 4 3 3 2 2 2 2 3 4 5 5 6 6 6 7 7 8 6 6 7 7 7 11 16 12 11 13 13 13 13 13 13 14 14 13 14 14
14 13 11 10 8 5 3 1 1 1 1 3 4 5 5 5 5 5 6 6 5 6 7 7 7 8 9 8 8 13 10 11 12 12 13 14 13 14 15 13 12 14 13
14 12 10 8 7 6 3 2 1 2 3 4 5 6 5 4 4 5 5 5 6 6 7 8 7 8 10 10 9 13 11 10 11 11 10 9 12 14 14 13 11 12 12
12 10 8 9 7 5 4 3 4 5 5 6 6 5 4 5 5 5 4 4 5 6 8 8 8 7 8 9 12 15 14 14 12 11 9 10 15 17 15 11 9 12 9
10 9 11 11 8 6 3 5 6 5 6 6 5 4 5 5 5 5 4 5 5 5 6 6 7 8 8 8 11 14 15 16 12 10 16 17 16 15 10 10 9 5 2
12 11 11 10 8 6 5 6 6 6 6 6 5 4 5 5 5 5 6 6 6 6 6 7 8 9 10 10 11 11 11 12 11 10 12 13 13 10 9 8 7 6 6
10 9 9 9 8 7 8 8 7 6 6 5 5 5 5 6 5 5 7 7 7 6 7 8 8 8 9 11 16 12 9 9 10 11 8 7 8 8 8 7 7 7 6
10 9 8 8 9 9 9 8 6 5 4 4 4 4 5 6 5 5 5 5 4 3 4 6 7 8 9 15 16 16 15 14 15 9 8 8 7 8 8 7 7 7 7
Wind_Direction
185 155 155 154 142 130 124 120 115 125 134 133 133 121 109 101 90 79 72 70 66 63 47 49 49 25 35 13 350 329 305 287 306 295 288 278 263 254 253 255 263 267 268
175 165 166 161 149 134 129 129 127 133 139 122 107 103 102 91 83 81 75 72 67 54 52 31 12 16 337 316 328 321 310 306 303 298 298 290 279 258 256 275 284 292 295
184 174 166 161 153 140 134 127 122 122 115 119 116 118 115 119 113 107 95 80 73 61 40 22 360 343 313 348 340 331 327 322 308 310 312 309 315 333 301 298 297 299 301
188 176 167 160 152 141 136 131 125 119 120 129 132 136 132 122 119 134 118 110 61 32 29 23 21 356 352 11 335 24 327 324 319 328 318 310 319 304 304 301 299 301 292
183 175 168 157 149 144 139 133 126 121 119 117 124 129 121 121 128 129 112 346 67 40 33 30 21 1 356 17 358 353 338 329 333 327 319 311 297 283 283 292 291 284 283
170 164 157 148 144 141 137 133 127 126 127 126 121 112 109 108 102 66 20 329 17 33 42 19 12 346 356 352 333 327 327 343 336 315 312 309 307 307 303 300 297 294 295
157 156 153 148 144 142 140 136 136 134 128 118 109 102 96 93 81 33 52 334 343 11 50 4 344 338 335 313 311 304 325 316 312 297 306 312 303 299 300 300 301 300 298
159 158 155 150 147 145 146 145 142 132 122 112 101 88 75 56 68 64 8 3 339 5 13 316 321 319 312 305 305 298 292 293 291 290 291 290 290 298 299 303 305 302 300
159 158 156 149 144 148 150 143 132 123 112 101 92 85 72 60 70 101 248 321 346 338 328 304 298 298 297 300 296 286 288 282 280 290 293 290 293 290 294 299 298 298 296
161 158 152 143 143 144 134 131 127 112 99 90 81 78 76 74 77 318 15 355 341 347 322 312 300 290 286 286 287 286 281 282 280 283 287 288 288 297 296 291 287 284 282
165 158 149 144 145 141 139 134 122 111 102 92 90 85 70 58 312 301 323 317 312 310 302 305 301 294 289 286 284 283 288 284 283 284 285 287 291 294 299 295 289 284 280
164 155 149 149 151 147 140 129 118 109 103 104 107 88 63 13 289 293 309 298 291 293 297 295 292 290 289 289 287 288 289 289 288 288 291 292 293 295 296 294 290 287 281
157 152 152 154 151 142 130 118 111 107 116 125 124 100 25 254 266 294 301 298 295 294 295 294 293 295 297 296 295 295 296 295 295 295 294 293 295 295 294 293 291 289 284
161 160 158 150 142 133 124 119 111 115 127 138 142 133 172 260 280 293 299 297 297 298 298 300 304 309 312 313 320 320 314 306 300 298 295 293 295 296 294 292 290 286 283
167 165 155 145 141 132 122 108 104 121 149 158 143 133 158 279 291 301 307 312 316 319 324 325 327 334 332 4 349 326 313 309 307 304 301 301 301 298 290 285 288 289 286
168 163 151 145 138 126 114 108 118 155 171 155 137 137 277 295 308 319 328 339 347 345 339 338 339 340 4 20 345 326 316 310 306 306 305 302 297 294 292 284 278 276 280
167 156 147 136 119 103 95 103 136 173 178 164 194 256 292 316 339 353 9 8 354 344 336 338 339 341 22 11 335 332 316 309 309 307 303 299 297 297 292 289 285 278 273
154 139 127 111 97 89 88 112 148 162 182 212 261 297 330 12 39 32 18 3 352 345 337 337 339 334 4 4 335 331 314 309 306 306 304 300 298 296 297 296 291 286 282
124 117 114 110 104 105 127 157 150 156 220 274 325 11 37 59 42 24 10 359 349 349 333 340 333 334 341 3 336 333 321 313 313 311 304 297 292 290 288 289 285 281 277
108 110 111 111 112 123 142 139 143 207 337 10 42 65 65 50 31 15 354 355 347 345 336 340 332 332 332 346 330 335 326 320 318 313 308 302 296 294 291 290 286 283 286
108 111 115 116 122 129 130 143 136 38 35 70 89 80 63 39 10 356 347 338 341 350 342 337 336 331 326 330 350 341 333 328 316 311 315 318 322 313 302 291 282 282 292
109 116 120 121 126 140 164 140 76 66 87 99 94 75 36 2 357 345 332 335 355 356 349 345 341 331 324 334 344 330 326 327 318 313 319 329 329 323 315 304 293 293 291
128 139 137 136 143 154 141 90 85 97 106 101 82 49 20 13 5 346 4 20 20 1 352 347 339 332 333 342 344 329 325 325 322 318 323 330 331 332 330 339 347 350 26
143 145 139 133 128 119 93 87 98 106 104 89 63 38 23 26 45 19 26 26 18 4 352 350 347 340 338 344 343 333 327 327 326 325 326 330 334 343 349 1 19 33 44
131 128 122 118 107 99 97 98 103 106 96 74 47 35 43 45 40 44 39 23 36 14 350 352 343 330 328 332 325 322 323 325 324 322 335 351 354 3 9 19 27 33 41
122 120 117 107 101 102 99 97 101 97 75 59 39 35 45 41 27 39 78 84 34 358 330 332 331 327 323 325 327 332 329 327 330 339 357 358 1 3 12 24 32 39 44